Location: Unspecified
(0.0000°N, 0.0000°E)
Time: 01:52:03
(UTC+02:00)

Tiangong 1 - Visible Passes

Search period start: 29 April 2016 00:00
Search period end: 09 May 2016 00:00
Orbit: 375 x 391 km, 42.8° (Epoch: 28 April)

Date Brightness Start Highest point End Pass type
(mag) Time Alt. Az. Time Alt. Az. Time Alt. Az.
02 May 3.3 20:57:43 10° S 20:58:31 14° SSE 20:58:31 14° SSE visible
03 May 2.8 21:33:15 10° WSW 21:35:12 32° WSW 21:35:12 32° WSW visible
04 May 1.4 20:33:07 10° SSW 20:36:11 45° SE 20:39:12 10° ENE visible
05 May 3.9 21:10:10 10° W 21:12:31 19° NW 21:14:51 10° N visible
08 May 3.4 06:39:14 10° NNW 06:41:49 24° NE 06:44:25 10° ESE visible
